Theta_e
313 312 312 312 314 314 314 314 314 314 314 314 314 313 312 306 300 300 301 302 302 304 306 306 308 307 308 312 314 318 319 322 322 319 319 319 320 319 318 318 318 322 322 323 329
310 311 311 311 311 314 314 314 313 313 313 313 313 312 309 306 301 301 302 302 302 303 304 304 306 307 310 312 314 316 318 322 318 317 317 316 317 317 317 315 314 315 318 321 327
303 300 300 304 305 309 313 313 313 313 312 312 312 311 305 303 302 304 303 303 302 303 303 301 305 308 310 311 313 314 319 319 319 315 314 314 313 312 314 315 315 318 319 318 323
297 297 298 298 300 309 310 312 313 313 312 310 311 311 303 302 303 305 303 302 302 303 302 303 307 307 309 310 312 316 316 317 319 317 313 313 312 311 312 315 314 317 319 319 319
301 301 299 297 298 300 306 307 309 313 312 309 308 310 303 302 303 302 303 303 302 303 302 304 308 306 309 309 311 311 313 316 318 317 315 313 310 310 309 314 312 313 315 317 317
300 300 299 298 297 298 298 301 305 309 311 307 307 308 303 300 304 303 304 302 301 301 301 304 307 306 308 308 309 310 312 313 314 311 310 308 308 309 311 315 312 311 312 314 315
297 297 297 297 298 298 298 298 298 298 300 304 308 306 303 305 304 302 302 301 301 301 301 303 306 306 307 307 307 308 309 307 306 309 309 308 306 304 310 313 313 311 311 311 313
296 296 296 296 297 298 298 298 298 298 304 305 308 303 304 303 302 302 302 301 301 303 305 306 306 306 307 307 305 306 306 308 309 305 307 309 313 309 310 309 307 310 310 310 310
297 296 296 295 297 297 297 298 298 300 304 308 304 302 302 302 302 301 301 301 301 303 306 307 306 306 305 305 305 304 307 305 306 304 304 304 309 306 304 302 304 304 307 308 309
296 297 296 294 296 297 298 300 305 308 307 304 303 303 303 302 301 301 301 302 303 305 306 305 305 303 302 304 308 306 304 303 303 303 302 301 303 303 303 301 301 302 303 305 307
295 295 293 295 298 298 299 303 302 305 305 305 304 302 303 303 304 302 301 303 304 304 303 303 302 303 304 304 304 303 303 302 302 302 302 301 303 303 302 301 301 303 302 303 305
295 295 293 295 301 303 301 302 300 301 303 303 304 304 304 305 305 306 301 303 304 302 302 302 302 303 303 303 304 304 303 302 302 301 301 301 300 300 300 301 303 303 304 304 304
294 293 293 294 298 303 303 302 302 303 304 304 307 306 306 307 306 306 302 303 303 302 302 301 302 303 303 303 304 303 304 303 302 301 300 299 300 300 299 300 301 302 304 305 305
294 292 293 294 296 301 303 303 303 304 294 298 305 303 302 302 302 302 302 302 302 302 301 301 302 303 303 303 303 304 303 304 304 302 302 300 301 302 302 302 300 300 300 302 304
292 293 293 294 295 297 297 303 304 304 290 296 303 303 302 303 302 301 301 302 301 301 300 300 302 302 303 303 302 302 301 303 302 301 301 302 301 301 302 303 302 301 303 302 302
292 292 294 295 296 295 300 303 305 291 289 299 302 302 302 302 301 300 301 301 301 300 300 299 299 301 301 301 302 301 303 303 302 301 295 300 300 301 301 303 304 304 303 305 303
292 292 295 295 294 296 301 304 292 289 293 296 302 302 302 302 301 299 299 300 299 298 300 300 299 300 301 301 302 302 303 304 298 295 298 300 300 301 302 301 303 304 303 303 301
292 292 294 295 295 299 301 293 286 280 284 298 304 302 301 302 301 300 299 298 297 299 298 300 303 299 299 301 301 302 304 304 298 299 302 300 303 304 303 302 303 304 303 304 301
292 292 296 293 295 300 301 287 286 288 299 303 300 294 294 298 300 301 299 298 298 297 299 299 301 298 299 300 302 303 303 303 300 291 297 303 303 302 302 301 301 301 301 303 302
292 291 292 291 292 300 292 292 292 297 297 300 300 294 291 294 301 300 299 299 300 298 299 301 300 298 298 299 300 301 300 305 302 300 295 301 302 305 306 304 302 302 300 302 303
291 291 291 291 292 298 287 287 297 295 294 298 301 300 302 301 300 298 301 300 298 299 298 301 302 301 298 298 299 299 296 301 305 304 297 297 304 301 304 303 302 302 302 303 303
291 285 291 291 291 284 283 293 293 293 292 294 296 298 299 296 293 300 301 301 294 296 299 300 303 302 300 299 297 300 299 300 306 303 301 299 306 303 301 300 300 301 303 304 304
291 291 291 290 281 278 284 291 291 293 291 293 294 293 292 291 292 294 295 296 293 293 294 299 297 294 303 299 297 299 298 300 299 302 306 298 305 301 301 300 300 300 302 304 304
291 284 290 291 290 286 283 285 290 291 291 292 293 293 290 286 290 286 291 294 292 292 295 299 301 295 303 302 299 299 301 300 300 301 301 304 306 306 307 306 303 302 302 302 304
291 286 288 281 285 287 289 289 290 287 290 292 290 292 289 283 283 284 288 290 290 291 293 292 293 298 296 301 299 298 299 303 302 301 304 304 303 303 305 305 306 304 303 301 302
291 290 290 290 289 288 288 287 290 288 289 290 289 290 289 284 287 282 284 285 289 287 289 292 290 292 294 299 303 304 303 298 302 304 304 305 304 300 299 301 301 302 303 302 302
292 291 291 290 289 288 289 288 289 290 290 290 289 286 290 290 289 289 289 290 288 286 286 288 292 292 292 297 302 306 304 304 298 295 298 300 302 301 301 300 300 300 303 302 302
Wind_Speed
19 18 18 17 15 16 15 14 13 14 16 17 20 20 16 15 13 15 16 10 6 9 8 7 11 11 13 11 10 7 1 8 9 8 6 6 3 1 3 7 7 11 9 8 27
23 24 24 25 22 18 17 15 14 14 16 18 21 21 17 14 15 19 14 11 9 9 13 9 11 13 8 8 10 6 6 9 4 5 4 3 2 2 2 4 3 9 11 10 28
24 24 23 24 23 20 19 18 15 15 16 18 20 21 17 13 14 2 3 8 10 9 8 9 10 13 6 7 10 7 9 7 3 6 6 3 2 2 2 4 7 15 17 21 30
18 19 18 19 19 18 19 18 18 16 16 18 19 19 15 10 4 2 2 1 11 10 8 9 11 9 5 6 11 4 10 7 15 13 4 3 3 4 5 4 5 11 17 25 33
20 21 20 18 19 18 21 21 20 18 18 18 18 17 13 6 8 8 6 4 7 10 11 12 12 6 5 5 7 5 4 10 24 16 15 12 7 8 10 14 7 6 20 28 32
20 20 22 21 19 20 20 21 21 21 19 18 16 14 10 4 6 5 5 6 8 9 10 15 8 10 5 5 10 3 9 18 13 10 7 5 5 6 8 16 19 15 20 30 31
22 22 22 21 18 18 17 17 19 18 16 15 13 12 11 15 8 7 5 5 6 7 10 15 10 8 3 3 5 5 4 4 6 8 7 8 9 14 22 25 24 25 26 28 32
22 23 23 21 17 15 15 15 14 12 10 11 11 8 8 8 7 8 9 10 9 8 8 8 11 6 4 4 3 2 2 3 3 7 5 12 23 3 13 24 31 34 31 31 33
26 25 25 21 16 14 12 11 9 7 8 7 6 5 7 5 5 4 6 5 7 9 8 6 7 4 2 2 3 3 4 6 6 8 4 6 11 4 10 13 25 28 31 32 32
26 27 26 19 15 14 10 6 5 3 2 3 4 3 5 2 1 1 4 3 3 8 5 4 4 2 1 5 7 5 3 3 5 2 2 4 19 8 13 10 11 17 25 30 34
26 28 25 17 14 14 8 2 1 2 1 4 4 5 2 2 3 3 4 6 3 4 4 2 3 11 12 2 2 2 3 3 3 3 4 8 19 14 15 13 18 23 19 28 37
27 28 22 13 11 13 9 9 8 6 10 12 12 16 21 21 7 7 7 7 4 4 2 3 9 8 4 5 6 6 3 5 6 3 5 6 14 13 10 14 24 28 30 31 31
27 28 23 13 6 6 14 14 8 5 4 10 3 3 3 5 6 6 12 7 4 4 6 6 4 1 9 5 6 8 10 5 7 3 4 5 10 7 8 17 20 28 35 37 37
27 27 21 11 2 4 3 4 8 3 4 5 1 2 1 0 2 3 11 3 1 6 5 6 5 3 3 5 7 4 7 11 7 2 4 1 6 5 5 9 7 20 31 38 41
25 25 18 16 8 4 8 3 4 2 4 4 2 1 1 1 1 0 8 5 3 2 5 6 2 4 6 6 8 7 1 5 3 3 2 3 2 7 2 7 10 11 26 32 39
24 22 17 13 9 13 5 4 2 6 5 3 2 2 2 1 1 1 2 5 2 3 4 7 2 3 4 2 1 4 5 5 3 2 2 8 8 7 5 10 7 2 15 28 30
22 22 12 15 20 9 3 0 5 5 4 6 3 4 2 2 3 4 3 4 4 2 4 2 4 3 3 3 2 1 4 2 4 3 6 1 4 12 7 9 6 5 7 18 28
24 23 6 10 14 4 2 5 4 2 5 4 4 5 4 1 4 2 2 3 5 2 1 4 5 7 4 5 6 6 7 4 7 4 4 2 7 7 7 9 16 20 15 11 24
26 14 4 8 12 2 2 3 6 5 5 6 5 5 5 4 1 1 4 4 5 9 8 4 5 1 2 1 1 5 4 4 3 2 2 4 7 10 8 10 7 9 11 20 27
26 12 7 15 11 2 4 4 1 6 7 5 2 3 1 5 6 3 2 3 4 10 3 3 4 1 1 1 0 2 2 3 3 3 5 5 6 6 6 8 5 6 9 20 26
22 8 7 14 4 3 3 5 1 6 10 4 3 4 3 3 2 2 4 4 10 9 4 3 5 2 2 6 8 2 1 2 5 4 4 2 6 7 10 6 7 8 15 20 26
11 3 11 12 4 3 2 3 8 3 3 3 2 3 2 6 3 4 5 1 16 5 7 5 4 4 9 4 4 4 8 8 5 6 4 3 11 3 3 6 5 8 17 19 23
11 5 4 9 2 2 5 3 3 1 3 2 2 1 2 1 3 2 5 5 17 12 6 8 4 1 5 3 2 5 6 4 3 3 14 3 6 2 4 4 8 10 14 21 25
5 3 3 3 2 5 2 4 3 3 5 5 3 0 2 2 2 5 6 7 15 13 17 8 5 6 10 4 2 5 10 16 6 4 9 21 16 16 17 11 6 9 9 19 27
2 3 2 3 3 2 4 3 4 4 4 4 3 5 5 1 3 5 4 3 6 6 3 4 5 6 16 20 7 5 7 15 17 23 10 21 20 16 19 20 22 13 11 15 25
4 3 4 4 6 3 5 4 10 9 4 7 7 9 5 6 9 6 3 1 4 4 3 1 4 12 14 17 19 18 11 10 20 18 26 19 22 12 16 18 12 21 18 17 27
10 15 11 7 4 4 5 7 10 9 11 22 14 5 8 15 17 22 23 20 10 5 1 3 2 4 6 13 17 13 28 17 6 8 12 15 25 11 18 16 21 30 23 23 28
Wind_Direction
303 302 300 299 302 305 314 316 324 331 336 339 340 335 326 311 302 284 276 264 244 215 185 199 210 208 201 206 195 185 161 227 220 175 233 276 275 277 227 167 175 185 187 192 181
297 291 291 291 291 288 294 301 306 317 325 332 336 336 326 312 304 288 278 245 215 204 225 216 199 191 187 204 199 177 207 228 194 205 227 267 253 287 180 183 174 178 193 181 182
301 302 295 290 290 279 284 287 290 302 316 323 329 334 330 318 316 304 334 215 206 206 220 229 202 190 203 191 203 207 230 233 257 224 226 223 239 283 162 244 219 200 191 182 185
328 328 319 304 300 286 281 282 283 291 308 317 321 327 328 316 304 250 345 148 201 212 230 207 190 176 186 208 210 240 235 243 227 256 239 232 269 287 210 237 285 238 214 192 191
349 341 334 321 306 297 282 284 279 281 295 307 310 317 320 292 267 273 274 252 225 224 223 205 195 183 184 198 237 245 250 234 240 249 254 266 235 243 250 248 242 216 200 196 199
341 335 330 324 311 304 294 290 280 279 284 295 301 305 301 260 277 270 261 260 247 235 221 206 220 210 238 230 190 260 213 251 253 239 220 214 256 212 246 250 240 228 210 204 208
335 335 330 325 317 307 309 302 296 284 280 283 290 288 272 270 268 250 252 260 251 240 226 217 205 208 238 253 237 249 262 273 224 215 224 214 272 232 244 251 245 235 229 218 217
345 345 340 331 326 323 320 314 305 284 265 276 280 272 257 269 261 250 257 258 251 226 215 215 210 260 243 314 331 232 174 217 251 165 228 169 257 224 244 234 236 236 227 224 221
348 347 343 336 330 331 329 319 310 291 275 262 255 253 272 272 258 250 248 251 237 213 200 186 194 225 194 78 331 261 230 222 321 203 151 185 264 234 240 240 237 240 230 224 221
348 346 346 341 336 341 339 338 344 303 240 231 225 270 252 311 243 272 217 214 207 195 192 185 189 106 171 164 223 203 226 244 228 247 227 229 258 256 243 267 265 254 236 225 218
348 347 353 347 357 346 4 288 276 257 285 233 251 278 330 342 354 298 219 189 160 170 174 209 137 219 207 247 255 184 194 240 248 230 190 232 255 261 264 267 265 257 239 225 221
351 349 358 351 17 21 8 73 51 322 313 311 279 271 264 261 281 280 218 187 170 210 133 45 239 226 167 195 236 245 272 261 284 241 188 287 270 264 254 250 241 241 240 228 225
353 350 356 351 23 25 53 61 10 316 280 297 318 316 323 220 224 253 202 196 186 199 200 180 242 303 183 176 199 234 235 244 235 328 242 325 283 240 257 240 243 238 242 233 224
355 353 352 6 5 19 37 37 351 343 59 286 357 345 2 203 215 249 202 202 227 226 183 237 266 212 179 215 169 251 214 229 232 169 236 96 279 260 254 258 223 237 228 231 229
359 354 3 12 358 14 314 306 352 344 19 265 335 339 233 179 302 311 202 195 219 213 127 247 250 205 203 221 164 230 127 186 199 187 17 200 7 269 261 278 256 235 230 228 227
359 355 358 3 356 329 311 319 127 42 260 335 327 2 348 243 238 134 171 211 263 249 214 241 271 221 206 96 309 139 69 51 54 91 316 208 179 268 204 224 250 214 230 226 218
354 353 348 357 350 339 319 47 33 129 315 314 344 2 325 262 279 177 171 184 203 100 246 258 220 204 175 131 65 240 97 305 339 351 227 41 207 244 252 262 249 256 264 224 212
346 344 338 349 346 335 5 51 104 250 244 318 320 304 226 274 251 187 166 258 229 129 98 207 295 173 192 203 181 205 157 197 211 216 266 122 235 244 250 268 256 257 252 224 205
339 354 7 354 358 4 25 65 208 210 291 334 343 52 311 343 331 271 213 223 234 176 184 193 270 50 96 1 129 189 220 182 71 84 32 234 279 288 272 251 252 258 213 204 200
344 345 354 349 343 185 73 238 121 26 334 342 216 129 281 314 358 6 280 218 266 197 176 277 298 46 77 89 47 183 173 109 78 266 269 274 274 238 299 275 243 241 216 199 199
356 350 343 355 17 100 152 227 349 31 9 334 344 320 302 301 262 313 286 347 349 340 214 351 180 219 126 202 182 147 251 44 131 184 221 282 259 219 237 342 251 250 224 206 201
5 359 333 357 43 1 69 342 340 323 355 331 330 350 321 12 318 264 260 51 19 325 350 301 238 234 220 230 219 211 199 176 176 213 239 170 253 200 267 301 302 263 233 216 207
337 287 318 351 98 339 319 307 284 294 298 328 282 169 83 214 322 305 339 45 29 23 7 339 294 332 301 340 348 223 191 202 120 97 234 176 264 333 297 303 337 294 262 226 210
332 346 321 33 84 131 100 288 299 292 273 262 288 338 88 327 245 277 313 309 345 359 11 332 234 211 246 258 107 227 205 200 156 199 228 235 258 292 294 282 281 316 301 247 221
196 246 201 283 286 176 159 182 269 282 254 240 291 222 191 239 310 254 267 321 327 316 67 57 283 331 313 284 256 243 277 218 205 226 202 252 237 244 252 274 288 300 291 247 230
226 219 222 242 231 191 242 209 245 255 194 253 225 244 199 188 206 248 246 193 221 322 40 86 270 322 305 293 248 251 251 232 226 227 235 256 269 228 262 269 269 276 265 247 230
254 238 248 226 189 180 203 217 228 242 239 247 247 191 227 242 262 262 261 267 242 174 219 237 267 341 275 343 301 238 225 224 201 220 222 234 245 254 258 244 245 249 241 239 229